Location: Wanzleben
(52.0609°N, 11.4408°E)
Time: 11:25:06
(UTC+00:00)

Cosmos 2263 Rocket - Pass Details

Date: 20 January 2021
Orbit: 825 x 847 km, 71.0° (Epoch: 24 February)

Event Time Altitude Azimuth Distance (km) Brightness Sun altitude
Rises 19:00:59 0° 263° (W) 3,405 6.5 -30.2°
Reaches altitude 10° 19:04:05 10° 279° (W) 2,470 5.5 -30.7°
Maximum altitude 19:08:17 21° 327° (NNW) 1,826 4.3 -31.3°
Enters shadow 19:10:36 16° 358° (N) 2,045 4.2 -31.7°
